Flag for Brazil Weather past 2 weeks in Sorocaba, São Paulo, Brazil

Now
68 °F

Scattered clouds.


Feels Like: 68 °F
Forecast: 60 / 70 °F
Wind: 14 mph from Southeast

Location: Campinas Aeroporto

Current Time: Jun 2, 2015 at 12:51:18 PM

Latest Report: Jun 2, 2015 at 12:00 PM


Visibility: N/A

Pressure: 30.18 "Hg

Humidity: 73%

Dew point: 59 °F

Location of SorocabaLocation

Historic Weather in Sorocaba — Graph

°F

Sorocaba temperature yesterday

Maximum temperature yesterday: 70 °F (at 12:00 PM)
Minimum temperature yesterday: 61 °F (at 10:00 PM)
Average temperature yesterday: 65 °F

Past Weeks' High & Low Weather Summary

 TemperatureHumidityPressure
High84 °F (May 25, 3:00 PM)100% (May 22, 5:00 AM)30.30 "Hg (May 22, 5:00 AM)
Low52 °F (May 30, 7:00 AM)40% (May 25, 3:00 PM)29.95 "Hg (May 29, 5:00 AM)
Average67 °F79%30.13 "Hg
* Reported May 18 11:00 AM — Jun 2 11:00 AM, Sorocaba, Weather by CustomWeather, © 2015

Note: Actual official high and low records may vary slightly from our data, if they occured in-between our weather recording intervals... More about our weather records

Advertising

Sorocaba weather history for previous 24 hours

 ConditionsComfort  
Time TempWeatherWind HumidityBarometerVisibility
11:00 AM
Tue, Jun 2
68 °FPartly sunny.9 mph73%30.21 "HgN/A
10:00 AM66 °FScattered clouds.14 mph78%30.21 "HgN/A
9:00 AM64 °FScattered clouds.15 mph83%30.21 "HgN/A
8:00 AM63 °FPartly sunny.12 mph83%30.18 "HgN/A
7:00 AM61 °FBroken clouds.15 mph88%30.15 "HgN/A
6:00 AM61 °FSunny.12 mph88%30.12 "Hg10 mi
5:00 AM61 °FClear.14 mph88%30.12 "Hg10 mi
4:00 AM61 °FClear.16 mph88%30.12 "Hg10 mi
3:00 AM61 °FClear.13 mph88%30.12 "Hg10 mi
2:00 AM63 °FPassing clouds.14 mph83%30.15 "HgN/A
12:00 AM63 °FClear.10 mph83%30.18 "Hg10 mi
11:00 PM
Mon, Jun 1
61 °FClear.14 mph88%30.18 "Hg10 mi
10:00 PM61 °FClear.10 mph94%30.21 "Hg10 mi
9:00 PM63 °FClear.12 mph88%30.21 "Hg10 mi
8:00 PM63 °FPassing clouds.9 mph88%30.21 "HgN/A
7:00 PM64 °FPartly cloudy.10 mph83%30.18 "HgN/A
6:00 PM64 °FPartly cloudy.15 mph83%30.18 "HgN/A
5:00 PM66 °FPassing clouds.16 mph78%30.15 "Hg5 mi
4:00 PM68 °FBroken clouds.14 mph73%30.15 "HgN/A
3:00 PM70 °FScattered clouds.10 mph73%30.15 "HgN/A
2:00 PM70 °FPartly sunny.7 mph73%30.15 "HgN/A
1:00 PM70 °FPartly sunny.12 mph73%30.18 "HgN/A
12:00 PM70 °FPartly sunny.12 mph73%30.21 "HgN/A
Weather by CustomWeather, © 2015

See weather overviewHow to use our weather pages